User: anonymous   Login
Location: La Silve
(44.2414°N, 5.8889°E)
Time: 01:59:34
(UTC+00:00)
Language:

Cosmos 1461 - Orbit

View from above orbital plane
View from above orbital plane
View from above satellite
View from above satellite

Ground track
Ground track

The orbit data is extracted from the following two-line orbital elements,

1 14064U 83044A   21060.38200771  .00000377  00000-0  44831-4 0  9992
2 14064  65.0002  53.1129 0114824 235.0681 123.9606 14.95074948925550
Epoch (UTC): 01 March 2021 09:10:05
Eccentricity: 0.0114824
inclination: 65.0002°
perigee height: 502 km
apogee height: 662 km
right ascension of ascending node: 53.1129°
argument of perigee: 235.0681°
revolutions per day: 14.95074948
mean anomaly at epoch: 123.9606°
orbit number at epoch: 92555

The dashed part of the orbit path shows where the satellite is in the earth's shadow,  

DLR